Simultaneous Nadir Overpasses (SNOs) Predictions

Prediction of SNOs between FY3D and AQUA Satellite Orbit:

Table of predicted SNOs for the next 14.0 days since TLE Epoch: 12/26/2020
Index Date (FY3D) Time (FY3D) Lat,Lon (FY3D) SZA (FY3D ) Date (AQUA) Time (AQUA) Lat,Lon (AQUA) SZA (AQUA ) Distance(km) Time Diff (sec)
1 12/28/2020 11:31:44 48.53,-139.56 143.84 12/28/2020 11:32:27 48.57,-139.90 143.91 24.86 43
2 12/28/2020 12:22:46 -47.67, 27.38 35.54 12/28/2020 12:22:12 -47.67, 27.37 35.45 0.36 34
3 12/31/2020 03:47:58 48.94, -23.46 143.57 12/31/2020 03:48:49 48.99, -23.85 143.64 28.62 51
4 12/31/2020 04:39:36 -46.01, 142.63 34.31 12/31/2020 04:39:09 -46.02, 142.62 34.24 1.90 27
5 12/31/2020 05:09:24 58.24, 111.68 81.44 12/31/2020 05:08:12 58.51, 113.25 81.81 96.75 72
6 01/02/2021 20:04:10 49.41, 92.67 143.20 01/02/2021 20:05:09 49.47, 92.23 143.27 32.39 59
7 01/02/2021 20:55:56 -46.01,-101.44 34.31 01/02/2021 20:55:37 -46.03,-101.49 34.24 4.38 19
8 01/02/2021 21:31:00 75.18,-154.81 98.29 01/02/2021 21:29:47 75.58,-152.53 98.58 78.10 73
9 01/05/2021 12:20:23 49.87,-151.20 142.77 01/05/2021 12:21:30 49.93,-151.69 142.85 36.10 67
10 01/05/2021 13:12:17 -46.01, 14.48 34.35 01/05/2021 13:12:06 -46.02, 14.38 34.27 7.77 11
11 01/05/2021 13:52:31 79.29,-130.46 114.68 01/05/2021 13:51:18 79.67,-132.04 114.96 52.53 73
12 01/08/2021 05:28:38 -46.01, 130.41 34.45 01/08/2021 05:28:35 -46.01, 130.26 34.36 11.57 3



Historial Predications of SNOs between FY3D and AQUA
